Stations météo

réclame
Mon MeteoGroup
Goteborg, Suède (2513): Température de l'air & dewpoint: 18.01.2018 10:00:00 - 24.01.2018 10:00:00 (CET)Goteborg, Suède (2513): Vitesse du vent & gusts: 18.01.2018 10:00:00 - 24.01.2018 10:00:00 (CET)Goteborg, Suède (2513): Direction du vent: 18.01.2018 10:00:00 - 24.01.2018 10:00:00 (CET)Goteborg, Suède (2513): reduced air pressure: 18.01.2018 10:00:00 - 24.01.2018 10:00:00 (CET)Goteborg, Suède (2513): visibility: 18.01.2018 10:00:00 - 24.01.2018 10:00:00 (CET)Goteborg, Suède (2513): Quantités de précipitations: 18.01.2018 10:00:00 - 24.01.2018 10:00:00 (CET)
Date & Time tt [°C] td [°C] ff [km/h] ff [knt] fx [km/h] fx [knt] dd ppp [hPa] vv [km] rr [mm]
24.01.2018 10:00:00 6,3 4,9 14 8 30 16 S 1004,0 10 0,0
24.01.2018 09:00:00 6,3 4,9 13 7 24 13 S 1003,8 10 0,0
24.01.2018 08:00:00 6,4 4,9 9 5 26 14 SSW 1003,9 10 0,0
24.01.2018 07:00:00 6,9 5,2 15 8 36 20 SW 1003,1 11 0,0
24.01.2018 06:00:00 6,8 5,7 13 7 32 17 SSW 1002,6 9 0,0
24.01.2018 05:00:00 7,2 6,5 19 11 35 19 SW 1001,7 10 0,0
24.01.2018 04:00:00 6,2 5,9 17 9 37 20 SSW 1000,7 7 0,2
24.01.2018 03:00:00 5,4 5,1 19 11 42 23 S 1000,5 7 1,5
24.01.2018 02:00:00 5,0 3,5 23 12 50 27 S 1000,8 3,4 2,4
24.01.2018 01:00:00 5,0 1,5 23 12 48 26 S 1001,9 4,8 3,4
24.01.2018 00:00:00 4,4 1,1 27 14 56 30 S 1003,2 6 3,1
23.01.2018 23:00:00 3,7 -0,1 27 15 53 28 SSE 1004,2 6 2,5
23.01.2018 22:00:00 2,4 -1,2 21 11 40 22 SSE 1006,2 3,9 3,2
23.01.2018 21:00:00 2,3 -0,8 21 11 47 25 SSE 1008,0 3,0 0,1
23.01.2018 20:00:00 2,2 -1,4 18 10 41 22 SSE 1009,9 3,5 0,0
23.01.2018 19:00:00 1,8 -1,8 19 10 38 21 SSE 1011,1 3,4 0,0
23.01.2018 18:00:00 1,7 -1,9 22 12 42 23 SSE 1012,3 4,7 0,0
23.01.2018 17:00:00 1,3 -2,5 21 11 38 21 SSE 1013,0 6 0,2
23.01.2018 16:00:00 1,3 -2,5 19 10 36 19 SSE 1014,0 5 0,0
23.01.2018 15:00:00 1,3 -2,8 14 8 30 16 S 1015,3 6 0,0
23.01.2018 14:00:00 1,6 -3,3 16 8 34 18 S 1016,1 14 0,0
23.01.2018 13:00:00 0,9 -4,0 9 5 23 12 S 1016,4 9 0,0
23.01.2018 12:00:00 0,6 -4,4 14 7 32 17 SSE 1017,2 9 0,0
23.01.2018 11:00:00 0,5 -4,5 15 8 29 16 SSE 1017,5 9 0,0
23.01.2018 10:00:00 0,0 -5,0 14 7 28 15 SSE 1017,8 9 0,0
23.01.2018 09:00:00 -0,2 -5,2 11 6 22 12 SSE 1018,2 10 0,0
23.01.2018 08:00:00 -0,2 -5,0 9 5 22 12 SSE 1017,8 11 0,0
23.01.2018 07:00:00 -0,4 -5,2 9 5 20 11 SE 1017,6 13 0,0
23.01.2018 06:00:00 -0,2 -5,0 10 6 19 10 SE 1017,6 14 0,0
23.01.2018 05:00:00 -0,2 -5,0 10 5 20 11 SE 1017,7 16 0,0
23.01.2018 04:00:00 -0,2 -5,0 8 4 18 10 SE 1017,4 17 0,0
23.01.2018 03:00:00 0,0 -5,0 8 5 19 11 SSE 1017,3 17 0,0
23.01.2018 02:00:00 -0,3 -5,1 10 5 23 12 ESE 1016,5 18 0,0
23.01.2018 01:00:00 0,1 -4,7 7 4 14 8 SE 1016,6 17 0,0
23.01.2018 00:00:00 0,2 -4,6 7 4 11 6 SE 1016,1 16 0,0
22.01.2018 23:00:00 0,2 -4,6 5 3 11 6 SE 1015,6 15 0,0
22.01.2018 22:00:00 0,2 -4,6 5 3 13 7 SE 1014,9 15 0,0
22.01.2018 21:00:00 0,3 -4,5 5 3 14 8 ESE 1014,5 17 0,0
22.01.2018 20:00:00 0,2 -4,8 5 3 11 6 E 1014,4 19 0,0
22.01.2018 19:00:00 0,2 -5,0 5 3 15 8 ENE 1014,1 21 0,0
22.01.2018 18:00:00 0,2 -5,0 8 4 16 8 E 1013,4 24 0,0
22.01.2018 17:00:00 0,3 -4,7 5 3 18 10 E 1012,9 20 0,0
22.01.2018 16:00:00 0,5 -4,5 7 4 14 8 ESE 1012,5 22 0,0
22.01.2018 15:00:00 0,6 -4,4 5 3 16 8 ESE 1012,3 24 0,0
22.01.2018 14:00:00 0,6 -4,4 9 5 18 10 SE 1012,2 25 0,0
22.01.2018 13:00:00 0,6 -4,4 8 5 17 9 ESE 1012,4 21 0,0
22.01.2018 12:00:00 0,3 -4,7 10 5 21 11 SE 1012,7 19 0,0
22.01.2018 11:00:00 -0,1 -4,7 6 3 15 8 E 1012,5 24 0,0
22.01.2018 10:00:00 -0,9 -2,8 4 2 19 10 ENE 1012,6 21 0,0
22.01.2018 09:00:00 -1,2 -3,1 6 4 14 8 E 1012,5 23 0,0
22.01.2018 08:00:00 -1,9 -3,8 6 4 12 6 ENE 1012,7 36 0,0
22.01.2018 07:00:00 -1,8 -3,7 7 4 14 7 E 1012,6 43 0,0
22.01.2018 06:00:00 -2,0 -3,9 6 3 11 6 E 1012,8 50 0,0
22.01.2018 05:00:00 -1,6 -3,3 5 3 11 6 ENE 1013,3 50 0,0
22.01.2018 04:00:00 -1,6 -2,9 7 4 13 7 E 1013,6 45 0,0
22.01.2018 03:00:00 -0,9 -2,8 7 4 21 11 SE 1014,4 45 0,0
22.01.2018 02:00:00 -0,6 -3,5 10 6 20 11 SE 1014,6 44 0,0
22.01.2018 01:00:00 -0,3 -4,2 11 6 21 11 SE 1014,8 39 0,0
22.01.2018 00:00:00 -0,2 -4,5 9 5 15 8 SE 1015,3 46 0,0
21.01.2018 23:00:00 -0,1 -4,2 6 4 21 11 SE 1015,6 45 0,0
21.01.2018 22:00:00 -0,4 -4,5 11 6 18 10 SE 1015,7 40 0,0
21.01.2018 21:00:00 -0,3 -4,4 5 3 10 6 SE 1015,9 39 0,0
21.01.2018 20:00:00 -0,1 -4,4 4 2 11 6 SE 1016,4 43 0,0
21.01.2018 19:00:00 0,1 -4,2 3 2 13 7 E 1016,3 50 0,0
21.01.2018 18:00:00 0,3 -4,0 8 4 13 7 SE 1016,3 47 0,0
21.01.2018 17:00:00 0,6 -3,7 7 4 11 6 SE 1016,5 30 0,0
21.01.2018 16:00:00 1,0 -3,7 4 2 10 6 SSE 1016,3 44 0,0
21.01.2018 15:00:00 0,9 -4,0 0 0 9 5 N 1016,0 50 0,0
21.01.2018 14:00:00 0,9 -3,8 7 4 12 6 SE 1015,7 40 0,0
21.01.2018 13:00:00 0,5 -4,0 3 2 9 5 NW 1015,3 41 0,0
21.01.2018 12:00:00 -0,1 -4,5 6 3 11 6 N 1014,9 41 0,0
21.01.2018 11:00:00 -0,1 -4,4 4 2 8 4 N 1014,4 35 0,0
21.01.2018 10:00:00 0,1 -4,2 4 2 9 5 NNE 1013,8 45 0,0
21.01.2018 09:00:00 -0,2 -4,5 3 2 8 4 NE 1012,8 49 0,0
21.01.2018 08:00:00 -0,1 -4,5 4 2 13 7 ENE 1012,2 50 0,0
21.01.2018 07:00:00 0,2 -4,3 6 3 13 7 ENE 1011,5 46 0,0
21.01.2018 06:00:00 0,3 -4,0 5 3 11 6 ENE 1010,8 48 0,0
21.01.2018 05:00:00 0,3 -4,0 8 4 13 7 NE 1010,0 34 0,0
21.01.2018 04:00:00 0,2 -4,1 4 2 11 6 NE 1009,3 50 0,0
21.01.2018 03:00:00 0,1 -4,2 3 2 12 7 NE 1008,6 50 0,0
21.01.2018 02:00:00 0,3 -4,0 6 3 13 7 NNE 1007,7 50 0,0
21.01.2018 01:00:00 0,5 -3,8 5 3 16 8 NE 1007,0 50 0,0
21.01.2018 00:00:00 0,7 -3,6 5 3 11 6 NE 1006,5 50 0,0
20.01.2018 23:00:00 0,9 -3,4 4 2 8 4 ENE 1006,0 50 0,0
20.01.2018 22:00:00 0,9 -3,4 5 3 9 5 ENE 1005,5 50 0,0
20.01.2018 21:00:00 0,9 -3,4 5 3 10 5 ENE 1004,9 50 0,0
20.01.2018 20:00:00 1,0 -3,3 5 3 15 8 E 1004,4 50 0,0
20.01.2018 19:00:00 0,9 -3,4 7 4 16 9 E 1004,1 50 0,0
20.01.2018 18:00:00 0,9 -3,4 9 5 20 11 E 1003,7 50 0,0
20.01.2018 17:00:00 0,9 -3,2 8 4 19 10 ENE 1003,5 50 0,0
20.01.2018 16:00:00 1,1 -3,0 8 5 20 11 E 1003,2 50 0,0
20.01.2018 15:00:00 1,2 -2,7 8 4 20 11 E 1003,0 39 0,0
20.01.2018 14:00:00 1,1 -2,7 11 6 22 12 E 1003,0 9 0,0
20.01.2018 13:00:00 1,0 -2,9 10 5 22 12 ESE 1003,2 15 0,0
20.01.2018 12:00:00 0,9 -3,0 7 4 18 10 SE 1003,6 35 0,0
20.01.2018 11:00:00 0,6 -3,1 10 5 20 11 SE 1003,7 10 0,0
20.01.2018 10:00:00 0,2 -3,0 10 5 22 12 SE 1003,7 20 0,0
20.01.2018 09:00:00 -0,4 -2,6 6 4 17 9 E 1003,5 23 0,0
20.01.2018 08:00:00 -0,4 -1,5 10 5 20 11 ESE 1003,1 10 0,0
20.01.2018 07:00:00 -0,5 -1,5 8 4 20 11 ESE 1003,1 7 0,2
20.01.2018 06:00:00 -0,5 -1,8 7 4 21 11 ESE 1003,2 24 0,1
20.01.2018 05:00:00 -0,7 -1,8 7 4 21 11 ESE 1003,3 9 0,0
20.01.2018 04:00:00 -0,8 -2,1 7 4 19 10 ESE 1003,8 35 0,0
20.01.2018 03:00:00 -1,1 -2,7 10 5 16 8 E 1003,8 40 0,0
20.01.2018 02:00:00 -1,1 -2,7 8 4 16 8 E 1004,1 46 0,0
20.01.2018 01:00:00 -1,1 -2,5 8 4 16 8 E 1004,2 28 0,0
20.01.2018 00:00:00 -1,0 -2,4 6 3 22 12 E 1004,3 32 0,0
19.01.2018 23:00:00 -1,1 -2,4 13 7 24 13 ESE 1004,3 26 0,0
19.01.2018 22:00:00 -1,0 -2,7 8 4 17 9 ESE 1004,3 48 0,0
19.01.2018 21:00:00 -0,8 -3,0 5 3 13 7 E 1004,1 50 0,0
19.01.2018 20:00:00 -0,8 -3,2 7 4 18 10 ESE 1004,1 50 0,0
19.01.2018 19:00:00 -1,6 -3,5 5 3 10 6 ENE 1003,8 47 0,0
19.01.2018 18:00:00 -1,9 -3,9 2 1 9 5 ENE 1003,7 48 0,0
19.01.2018 17:00:00 -1,1 -4,4 5 3 10 5 ENE 1003,7 50 0,0
19.01.2018 16:00:00 0,0 -4,4 5 3 13 7 E 1003,5 48 0,0
19.01.2018 15:00:00 0,8 -3,9 7 4 13 7 SE 1003,2 43 0,0
19.01.2018 14:00:00 0,7 -3,8 6 4 15 8 ESE 1002,8 44 0,0
19.01.2018 13:00:00 0,6 -4,2 5 3 12 6 E 1002,7 44 0,0
19.01.2018 12:00:00 -1,0 -5,0 4 2 9 5 NE 1002,7 43 0,0
19.01.2018 11:00:00 -2,0 -3,7 3 1 8 4 NNE 1002,4 37 0,0
19.01.2018 10:00:00 -3,3 -4,1 3 2 7 4 NE 1001,9 43 0,0
19.01.2018 09:00:00 -3,8 -4,2 6 3 11 6 ENE 1001,5 49 0,0
19.01.2018 08:00:00 -3,7 -4,0 4 2 9 5 ENE 1000,8 10 0,0
19.01.2018 07:00:00 -3,5 -3,8 6 3 11 6 NE 1000,1 2,7 0,0
19.01.2018 06:00:00 -3,1 -3,4 6 3 10 5 NE 999,8 2,0 0,0
19.01.2018 05:00:00 -2,8 -3,2 5 3 8 4 N 999,1 14 0,0
19.01.2018 04:00:00 -2,7 -3,1 4 2 10 6 NNW 998,6 6 0,0
19.01.2018 03:00:00 -2,0 -2,4 0 0 8 4 N 998,2 10 0,0
19.01.2018 02:00:00 -1,4 -2,0 3 1 8 4 NNE 997,8 28 0,0
19.01.2018 01:00:00 -1,2 -1,9 3 1 4 2 W 997,2 27 0,0
19.01.2018 00:00:00 -0,8 -1,8 0 0 6 3 N 996,8 34 0,0
18.01.2018 23:00:00 0,1 -1,3 3 2 6 3 ENE 996,5 50 0,0
18.01.2018 22:00:00 0,4 -1,7 3 1 7 4 E 995,8 50 0,0
18.01.2018 21:00:00 0,6 -1,3 5 3 9 5 E 995,3 50 0,0
18.01.2018 20:00:00 0,7 -1,7 4 2 9 5 ENE 994,6 50 0,0
18.01.2018 19:00:00 0,8 -1,9 4 2 11 6 NE 993,9 50 0,0
18.01.2018 18:00:00 0,9 -1,3 5 3 12 7 NE 993,0 50 0,0
18.01.2018 17:00:00 1,0 -2,1 6 4 16 9 ENE 992,5 50 0,0
18.01.2018 16:00:00 1,1 -2,8 7 4 14 8 NE 991,8 50 0,0
18.01.2018 15:00:00 1,4 -2,5 6 3 14 8 ENE 991,2 47 0,0
18.01.2018 14:00:00 1,5 -2,3 9 5 22 12 E 990,7 50 0,0
18.01.2018 13:00:00 1,5 -2,3 8 4 17 9 E 990,6 50 0,0
18.01.2018 12:00:00 1,4 -0,7 6 3 19 10 ESE 990,6 43 0,0
18.01.2018 11:00:00 0,9 0,0 8 5 16 9 E 990,5 6 0,0
18.01.2018 10:00:00 0,8 -0,5 6 3 13 7 ESE 990,9 48 0,0

tt = Température de l'air
td = dewpoint
ff = Vitesse du vent
fx = gusts
dd = Direction du vent
ppp = reduced air pressure
vv = visibility
rr = Quantités de précipitations

stations d'obs. à proximité